Regional Weather Roundup
Issued by NWS

Home | Current Version | Previous Version | Text Only | Print | Product List | Glossary On
Versions: 1 2 3 4 5 6 7 8 9 10 11 12 13 14 15 16 17 18 19 20 21 22 23 24 25 26 27 28 29 30 31 32 33 34 35 36 37 38 39 40 41 42 43 44 45 46 47 48 49 50
000
ASUS43 KBIS 311620
RWRND

NORTH DAKOTA REGIONAL WEATHER ROUNDUP
NATIONAL WEATHER SERVICE BISMARCK ND
1100 AM CDT TUE MAR 31 2015

NOTE: "FAIR" INDICATES FEW OR NO CLOUDS BELOW 12,000 FEET WITH NO
SIGNIFICANT WEATHER AND/OR OBSTRUCTIONS TO VISIBILITY.


NDZ001>003-009>011-017-311700-
NORTHWEST NORTH DAKOTA

CITY           SKY/WX    TMP DP  RH WIND       PRES   REMARKS
WILLISTON      SUNNY     56  28  34 SE8G20    29.79F
MINOT          MOSUNNY   51  31  46 SE9       29.87F
MINOT AFB      PTSUNNY   51  36  55 SE14      29.86F
$$

NDZ018>021-031>035-040>046-311700-
SOUTHWEST NORTH DAKOTA

CITY           SKY/WX    TMP DP  RH WIND       PRES   REMARKS
BISMARCK       SUNNY     53  37  54 E7        29.90F
DICKINSON      SUNNY     58  31  35 S14       29.80F
GARRISON         N/A     50  34  54 E8        29.87F
HETTINGER ARPT SUNNY     59  33  37 S10       29.85F
$$

NDZ004>008-012>016-024-026-027-054-311700-
NORTHEAST NORTH DAKOTA

CITY           SKY/WX    TMP DP  RH WIND       PRES   REMARKS
GRAND FORKS    MOSUNNY   50  37  61 CALM      29.93F
GRND FRKS AFB  SUNNY     53  36  53 VRB5      29.93F
DEVILS LAKE    SUNNY     46  36  66 S3        29.92S
$$

NDZ022-023-025-028>030-036>039-047>053-311700-
SOUTHEAST NORTH DAKOTA

CITY           SKY/WX    TMP DP  RH WIND       PRES   REMARKS
FARGO          PTSUNNY   52  35  52 CALM      29.95S
JAMESTOWN      SUNNY     53  34  48 NE5       29.92F
$$




USA.gov is the U.S. government's official web portal to all federal, state and local government web resources and services.